Regional Weather Roundup
Issued by NWS Nashville, TN

Home | Current Version | Previous Version | Text Only | Print | Product List | Glossary On
Versions: 1 2 3 4 5 6 7 8 9 10 11 12 13 14 15 16 17 18 19 20 21 22 23 24 25 26 27 28 29 30 31 32 33 34 35 36 37 38 39 40 41 42 43 44 45 46 47 48 49 50
000
ASUS44 KOHX 180415
RWROHX
MIDDLE TENNESSEE HOURLY WEATHER ROUNDUP
NATIONAL WEATHER SERVICE NASHVILLE TN
1100 PM CDT THU APR 17 2014

NOTE: "FAIR" INDICATES FEW OR NO CLOUDS BELOW 12,000 FEET WITH
NO SIGNIFICANT WEATHER AND/OR OBSTRUCTIONS TO VISIBILITY.

* THESE REPORTS ARE NOT UNDER NWS QUALITY CONTROL AND MAY NOT
  REPORT WEATHER SUCH AS PRECIPITATION AND FOG.


TNZ005>011-023>034-057-059-062>066-078-080-180500
...NORTHERN MIDDLE TENNESSEE...

CITY           SKY/WX    TMP DP  RH WIND       PRES   REMARKS
BAXTER*          N/A     55  37  50 CALM        N/A
BRENTWOOD*       N/A     46  39  76 CALM        N/A
CASTALIAN SPRG   N/A     48  43  81 CALM        N/A
CLARKSVILLE    MOCLDY    54  36  50 SE3       30.26S
COLUMBIA       MOCLDY    52  48  87 CALM      30.25S
CROSSVILLE     MOCLDY    52  36  54 CALM      30.32S
GALLATIN         N/A     52  41  66 CALM      30.28S
DICKSON        MOCLDY    55  36  47 CALM      30.26S
GOODLETTSVILLE   N/A     55  39  54 CALM        N/A
JOELTON*         N/A     50  41  71 NW1         N/A
LAFAYETTE*       N/A     54  32  43 SE2         N/A
LIVINGSTON     MOCLDY    56  35  45 S6        30.30S
MONTEREY         N/A     46  39  76 CALM        N/A
NASHVILLE      CLOUDY    55  41  59 S3        30.27S
OLD HICKORY*     N/A     55  46  71 CALM        N/A
PEGRAM*          N/A    N/A N/A N/A CALM        N/A
PORTLAND       MOCLDY    52  34  50 CALM      30.26F
SMYRNA         MOCLDY    51  42  71 CALM      30.28F
SPARTA         CLEAR     46  39  76 CALM      30.28S
SPRINGFIELD*     N/A     52  43  71 MISG        N/A
WHITE BLUFF*     N/A     54  37  54 CALM        N/A
$$
TNZ056-058-060-061-075>077-079-093>097-180500
...SOUTHERN MIDDLE TENNESSEE...

CITY           SKY/WX    TMP DP  RH WIND       PRES   REMARKS
BELLEVUE*        N/A     54  45  71 CALM        N/A
CULLEOKA*        N/A     52  41  66 CALM        N/A
EAGLEVILLE*      N/A    N/A N/A N/A E3          N/A
FAYETTEVILLE   CLOUDY    55  42  61 E7        30.26F
HOHENWALD*       N/A     55  41  58 CALM        N/A
LEWISBURG      MOCLDY    49  44  83 CALM      30.26F
MANCHESTER*      N/A     54  45  71 CALM        N/A
MCMINNVILLE      N/A     57  40  53 SE3       30.29S
MOUNT PLEASANT   N/A     55  46  71 CALM        N/A
MURFREESBORO   MOCLDY    54  41  61 CALM      30.27S
SHELBYVILLE    MOCLDY    52  45  76 SE5       30.28F
SPRING HILL*     N/A     52  43  71 CALM        N/A
TULLAHOMA      CLEAR     57  39  51 E3        30.28F
WINCHESTER     CLEAR     55  41  58 SE9       30.27F
$$


...KEY TO REMARKS...
VSB - VISIBILITY IN MILES
WCI - WIND CHILL INDEX
HX  - HEAT INDEX




USA.gov is the U.S. government's official web portal to all federal, state and local government web resources and services.